| time (UTC) | temp F | wind direction | speed MPH | gust MPH | rain 1hr in | rain 24hr in | rain mn in | humidity % | barometer mb |
| 20260504234504 | 70 | 191 | 0.0 | 0.0 | 0.00 | 0.01 | 0.00 | 39 | 1003.3 |
| 20260504234003 | 71 | 191 | 0.0 | 0.0 | 0.00 | 0.01 | 0.00 | 36 | 1003.2 |
| 20260504233000 | 71 | 191 | 0.0 | 1.0 | 0.00 | 0.01 | 0.00 | 33 | 1003.2 |
| 20260504232504 | 71 | 191 | 0.0 | 2.0 | 0.00 | 0.01 | 0.00 | 35 | 1003.2 |
| 20260504232005 | 72 | 183 | 0.0 | 4.0 | 0.00 | 0.01 | 0.00 | 33 | 1003.2 |
| 20260504231500 | 72 | 205 | 0.0 | 4.0 | 0.00 | 0.01 | 0.00 | 33 | 1003.2 |
| 20260504231002 | 72 | 205 | 1.0 | 3.0 | 0.00 | 0.01 | 0.00 | 34 | 1003.1 |
| 20260504230504 | 73 | 202 | 1.0 | 3.0 | 0.00 | 0.01 | 0.00 | 34 | 1003.2 |
| 20260504230006 | 73 | 165 | 0.0 | 2.0 | 0.00 | 0.01 | 0.00 | 33 | 1003.2 |
| 20260504225500 | 73 | 210 | 1.0 | 2.0 | 0.00 | 0.01 | 0.00 | 33 | 1003.2 |
| 20260504224002 | 74 | 222 | 1.0 | 3.0 | 0.00 | 0.01 | 0.00 | 33 | 1003.4 |
| 20260504223500 | 74 | 266 | 0.0 | 3.0 | 0.00 | 0.01 | 0.00 | 34 | 1003.3 |
| 20260504223004 | 74 | 165 | 1.0 | 7.0 | 0.00 | 0.01 | 0.00 | 33 | 1003.4 |
| 20260504222500 | 74 | 223 | 2.0 | 7.0 | 0.00 | 0.01 | 0.00 | 32 | 1003.4 |
| 20260504222000 | 74 | 210 | 3.0 | 5.0 | 0.00 | 0.01 | 0.00 | 34 | 1003.4 |
| 20260504221505 | 74 | 155 | 3.0 | 6.0 | 0.00 | 0.01 | 0.00 | 32 | 1003.5 |
| 20260504221000 | 74 | 157 | 3.0 | 6.0 | 0.00 | 0.01 | 0.00 | 34 | 1003.5 |
| 20260504220504 | 74 | 170 | 2.0 | 5.0 | 0.00 | 0.01 | 0.00 | 34 | 1003.5 |
| 20260504220007 | 74 | 174 | 2.0 | 5.0 | 0.00 | 0.01 | 0.00 | 37 | 1003.6 |
| 20260504215000 | 74 | 181 | 1.0 | 4.0 | 0.00 | 0.01 | 0.00 | 34 | 1003.6 |
| 20260504214500 | 74 | 279 | 1.0 | 3.0 | 0.00 | 0.01 | 0.00 | 36 | 1003.5 |
| 20260504214006 | 73 | 212 | 1.0 | 3.0 | 0.00 | 0.01 | 0.00 | 37 | 1003.6 |
| 20260504213504 | 73 | 151 | 1.0 | 5.0 | 0.00 | 0.01 | 0.00 | 36 | 1003.6 |
| 20260504213003 | 73 | 260 | 2.0 | 6.0 | 0.00 | 0.01 | 0.00 | 36 | 1003.6 |
| 20260504212500 | 73 | 201 | 2.0 | 6.0 | 0.00 | 0.01 | 0.00 | 38 | 1003.7 |
| 20260504212000 | 74 | 147 | 2.0 | 5.0 | 0.00 | 0.01 | 0.00 | 35 | 1003.7 |
| 20260504211504 | 74 | 152 | 2.0 | 7.0 | 0.00 | 0.01 | 0.00 | 35 | 1003.6 |
| 20260504211004 | 74 | 344 | 3.0 | 9.0 | 0.00 | 0.01 | 0.00 | 33 | 1003.7 |
| 20260504210502 | 74 | 153 | 2.0 | 7.0 | 0.00 | 0.01 | 0.00 | 35 | 1003.7 |
| 20260504210004 | 74 | 192 | 2.0 | 7.0 | 0.00 | 0.01 | 0.00 | 36 | 1003.6 |
| 20260504204500 | 73 | 149 | 2.0 | 6.0 | 0.00 | 0.01 | 0.00 | 39 | 1003.8 |
| 20260504204004 | 73 | 174 | 2.0 | 7.0 | 0.00 | 0.01 | 0.00 | 38 | 1003.9 |
| 20260504203502 | 73 | 178 | 3.0 | 8.0 | 0.00 | 0.01 | 0.00 | 36 | 1003.9 |
| 20260504203002 | 73 | 225 | 2.0 | 8.0 | 0.00 | 0.01 | 0.00 | 38 | 1003.9 |
| 20260504202500 | 72 | 190 | 2.0 | 5.0 | 0.00 | 0.01 | 0.00 | 41 | 1004.0 |
| 20260504202005 | 72 | 232 | 2.0 | 5.0 | 0.00 | 0.01 | 0.00 | 40 | 1004.1 |
| 20260504201500 | 72 | 180 | 2.0 | 5.0 | 0.00 | 0.01 | 0.00 | 40 | 1004.1 |
| 20260504201005 | 72 | 191 | 3.0 | 6.0 | 0.00 | 0.01 | 0.00 | 38 | 1004.1 |
| 20260504200500 | 73 | 161 | 3.0 | 11.0 | 0.00 | 0.01 | 0.00 | 37 | 1004.2 |
| 20260504200006 | 73 | 209 | 2.0 | 12.0 | 0.00 | 0.01 | 0.00 | 36 | 1004.3 |
| 20260504195459 | 73 | 184 | 2.0 | 8.0 | 0.00 | 0.01 | 0.00 | 43 | 1004.3 |
| 20260504194500 | 72 | 254 | 4.0 | 13.0 | 0.00 | 0.01 | 0.00 | 40 | 1004.6 |
| 20260504193500 | 72 | 138 | 2.0 | 6.0 | 0.00 | 0.01 | 0.00 | 41 | 1004.6 |
| 20260504193005 | 71 | 146 | 2.0 | 5.0 | 0.00 | 0.01 | 0.00 | 40 | 1004.6 |
| 20260504192459 | 71 | 161 | 3.0 | 8.0 | 0.00 | 0.01 | 0.00 | 41 | 1004.8 |
| 20260504191501 | 72 | 145 | 3.0 | 8.0 | 0.00 | 0.01 | 0.00 | 40 | 1004.9 |
| 20260504190459 | 72 | 236 | 3.0 | 8.0 | 0.00 | 0.01 | 0.00 | 42 | 1005.0 |
| 20260504190003 | 72 | 163 | 2.0 | 8.0 | 0.00 | 0.01 | 0.00 | 43 | 1005.1 |
| 20260504185500 | 71 | 283 | 2.0 | 5.0 | 0.00 | 0.01 | 0.00 | 42 | 1005.1 |
| 20260504185000 | 72 | 173 | 4.0 | 8.0 | 0.00 | 0.01 | 0.00 | 42 | 1005.0 |
| 20260504184501 | 71 | 139 | 5.0 | 10.0 | 0.00 | 0.01 | 0.00 | 43 | 1005.1 |
| 20260504184000 | 72 | 148 | 3.0 | 10.0 | 0.00 | 0.01 | 0.00 | 40 | 1005.2 |
| 20260504183500 | 72 | 148 | 2.0 | 10.0 | 0.00 | 0.01 | 0.00 | 43 | 1005.2 |
| 20260504183000 | 71 | 152 | 3.0 | 10.0 | 0.00 | 0.01 | 0.00 | 43 | 1005.3 |
| 20260504182502 | 71 | 179 | 3.0 | 8.0 | 0.00 | 0.01 | 0.00 | 45 | 1005.3 |
| 20260504182001 | 71 | 281 | 2.0 | 8.0 | 0.00 | 0.01 | 0.00 | 44 | 1005.3 |
| 20260504181500 | 71 | 144 | 3.0 | 8.0 | 0.00 | 0.01 | 0.00 | 44 | 1005.5 |
| 20260504181005 | 70 | 259 | 3.0 | 9.0 | 0.00 | 0.01 | 0.00 | 44 | 1005.5 |
| 20260504180501 | 70 | 283 | 3.0 | 8.0 | 0.00 | 0.01 | 0.00 | 43 | 1005.7 |
| 20260504180005 | 70 | 140 | 3.0 | 9.0 | 0.00 | 0.01 | 0.00 | 45 | 1005.7 |
| 20260504175500 | 70 | 279 | 2.0 | 9.0 | 0.00 | 0.01 | 0.00 | 45 | 1005.7 |
| 20260504174502 | 69 | 244 | 3.0 | 11.0 | 0.00 | 0.01 | 0.00 | 46 | 1005.8 |
| 20260504174003 | 69 | 268 | 2.0 | 9.0 | 0.00 | 0.01 | 0.00 | 45 | 1005.7 |
| 20260504173504 | 69 | 215 | 2.0 | 9.0 | 0.00 | 0.01 | 0.00 | 45 | 1005.8 |
| 20260504173000 | 68 | 142 | 3.0 | 8.0 | 0.00 | 0.01 | 0.00 | 46 | 1005.8 |
| 20260504172504 | 68 | 227 | 3.0 | 8.0 | 0.00 | 0.01 | 0.00 | 46 | 1005.9 |
| 20260504172004 | 68 | 254 | 4.0 | 12.0 | 0.00 | 0.01 | 0.00 | 46 | 1006.0 |
| 20260504171500 | 68 | 188 | 4.0 | 12.0 | 0.00 | 0.01 | 0.00 | 45 | 1005.9 |
| 20260504171000 | 67 | 163 | 3.0 | 12.0 | 0.00 | 0.01 | 0.00 | 47 | 1005.9 |
| 20260504170500 | 67 | 143 | 4.0 | 12.0 | 0.00 | 0.01 | 0.00 | 47 | 1005.9 |
| 20260504151002 | 62 | 171 | 4.0 | 10.0 | 0.00 | 0.01 | 0.00 | 47 | 1006.6 |
| 20260504150500 | 62 | 229 | 4.0 | 10.0 | 0.00 | 0.01 | 0.00 | 47 | 1006.7 |
| 20260504140959 | 59 | 141 | 3.0 | 11.0 | 0.00 | 0.01 | 0.00 | 52 | 1007.0 |
| 20260504140459 | 59 | 176 | 3.0 | 10.0 | 0.00 | 0.01 | 0.00 | 51 | 1007.0 |
| 20260504110500 | 52 | 148 | 3.0 | 7.0 | 0.00 | 0.01 | 0.00 | 56 | 1007.4 |
| 20260504100459 | 51 | 161 | 2.0 | 5.0 | 0.00 | 0.01 | 0.00 | 60 | 1007.5 |
| 20260504081459 | 50 | 155 | 1.0 | 4.0 | 0.00 | 0.01 | 0.00 | 58 | 1007.6 |
| 20260504080459 | 50 | 193 | 1.0 | 5.0 | 0.00 | 0.01 | 0.00 | 59 | 1007.8 |
| 20260504050459 | 48 | 205 | 0.0 | 0.0 | 0.00 | 0.01 | 0.00 | 87 | 1008.6 |
| 20260504050003 | 48 | 205 | 0.0 | 0.0 | 0.00 | 0.01 | 0.00 | 86 | 1008.7 |
| 20260504045506 | 48 | 205 | 0.0 | 0.0 | 0.00 | 0.01 | 0.00 | 86 | 1008.6 |
| 20260504045004 | 48 | 205 | 0.0 | 0.0 | 0.00 | 0.01 | 0.00 | 86 | 1008.6 |
| 20260504044502 | 48 | 205 | 0.0 | 0.0 | 0.00 | 0.01 | 0.00 | 86 | 1008.8 |
| 20260504043506 | 48 | 205 | 0.0 | 0.0 | 0.00 | 0.01 | 0.00 | 86 | 1008.8 |
| 20260504043006 | 48 | 205 | 0.0 | 0.0 | 0.00 | 0.01 | 0.00 | 85 | 1008.8 |
| 20260504042502 | 48 | 205 | 0.0 | 0.0 | 0.00 | 0.01 | 0.00 | 85 | 1008.8 |
| 20260504042004 | 48 | 205 | 0.0 | 0.0 | 0.00 | 0.01 | 0.00 | 85 | 1008.8 |
| 20260504041004 | 48 | 205 | 0.0 | 0.0 | 0.00 | 0.01 | 0.00 | 85 | 1008.9 |
| 20260504040504 | 48 | 205 | 0.0 | 0.0 | 0.00 | 0.01 | 0.00 | 84 | 1008.8 |
| 20260504040007 | 48 | 205 | 0.0 | 0.0 | 0.00 | 0.01 | 0.00 | 83 | 1008.9 |
| 20260504035503 | 48 | 205 | 0.0 | 0.0 | 0.00 | 0.01 | 0.01 | 83 | 1008.8 |
| 20260504035004 | 48 | 205 | 0.0 | 0.0 | 0.00 | 0.01 | 0.01 | 84 | 1008.9 |
| 20260504034500 | 48 | 205 | 0.0 | 0.0 | 0.00 | 0.01 | 0.01 | 84 | 1008.9 |
| 20260504034005 | 48 | 205 | 0.0 | 0.0 | 0.00 | 0.01 | 0.01 | 84 | 1008.9 |
| 20260504033504 | 48 | 205 | 0.0 | 0.0 | 0.00 | 0.01 | 0.01 | 84 | 1009.0 |
| 20260504033006 | 48 | 205 | 0.0 | 0.0 | 0.00 | 0.01 | 0.01 | 84 | 1008.9 |
| 20260504031505 | 48 | 251 | 0.0 | 0.0 | 0.00 | 0.01 | 0.01 | 84 | 1009.0 |
| 20260504031005 | 48 | 251 | 0.0 | 0.0 | 0.00 | 0.01 | 0.01 | 84 | 1009.2 |
| 20260504030503 | 48 | 251 | 0.0 | 0.0 | 0.00 | 0.01 | 0.01 | 83 | 1009.4 |
| 20260504030004 | 48 | 251 | 0.0 | 0.0 | 0.00 | 0.01 | 0.01 | 83 | 1009.2 |
| 20260504025506 | 48 | 251 | 0.0 | 0.0 | 0.00 | 0.01 | 0.01 | 82 | 1009.2 |
| 20260504025005 | 48 | 251 | 0.0 | 0.0 | 0.00 | 0.01 | 0.01 | 81 | 1009.2 |
| 20260504024506 | 49 | 251 | 0.0 | 0.0 | 0.00 | 0.01 | 0.01 | 81 | 1009.2 |
| 20260504023003 | 49 | 251 | 0.0 | 0.0 | 0.00 | 0.01 | 0.01 | 80 | 1009.3 |
| 20260504022501 | 49 | 251 | 0.0 | 0.0 | 0.01 | 0.01 | 0.01 | 79 | 1009.5 |
| 20260504022004 | 49 | 251 | 0.0 | 0.0 | 0.01 | 0.01 | 0.01 | 79 | 1009.7 |
| 20260504021504 | 49 | 251 | 0.0 | 0.0 | 0.01 | 0.01 | 0.01 | 78 | 1009.9 |
| 20260504021000 | 49 | 251 | 0.0 | 0.0 | 0.01 | 0.01 | 0.01 | 78 | 1009.9 |
| 20260504020007 | 49 | 251 | 0.0 | 0.0 | 0.01 | 0.01 | 0.01 | 77 | 1009.8 |
| 20260504015504 | 49 | 291 | 0.0 | 2.0 | 0.01 | 0.01 | 0.01 | 77 | 1009.9 |
| 20260504015004 | 49 | 267 | 0.0 | 4.0 | 0.01 | 0.01 | 0.01 | 76 | 1010.0 |
| 20260504014500 | 50 | 219 | 1.0 | 7.0 | 0.01 | 0.01 | 0.01 | 76 | 1010.0 |
| 20260504014005 | 50 | 257 | 2.0 | 7.0 | 0.01 | 0.01 | 0.01 | 74 | 1010.1 |
| 20260504013504 | 50 | 236 | 3.0 | 9.0 | 0.01 | 0.01 | 0.01 | 74 | 1010.3 |
| 20260504013004 | 50 | 206 | 3.0 | 9.0 | 0.01 | 0.01 | 0.01 | 72 | 1010.4 |
| 20260504012505 | 51 | 275 | 3.0 | 12.0 | 0.00 | 0.00 | 0.00 | 70 | 1010.4 |
| 20260504012004 | 51 | 271 | 2.0 | 12.0 | 0.00 | 0.00 | 0.00 | 68 | 1010.3 |
| 20260504011003 | 52 | 310 | 2.0 | 9.0 | 0.00 | 0.00 | 0.00 | 66 | 1009.8 |
| 20260504010500 | 52 | 154 | 3.0 | 10.0 | 0.00 | 0.00 | 0.00 | 65 | 1009.7 |
| 20260504010005 | 52 | 286 | 3.0 | 10.0 | 0.00 | 0.00 | 0.00 | 63 | 1009.6 |
| 20260504005500 | 52 | 295 | 3.0 | 10.0 | 0.00 | 0.00 | 0.00 | 63 | 1009.7 |
| 20260504005004 | 52 | 291 | 3.0 | 11.0 | 0.00 | 0.00 | 0.00 | 62 | 1009.7 |
| 20260504004502 | 52 | 264 | 2.0 | 10.0 | 0.00 | 0.00 | 0.00 | 61 | 1009.7 |
| 20260504004005 | 52 | 278 | 1.0 | 7.0 | 0.00 | 0.00 | 0.00 | 62 | 1009.6 |
| 20260504003501 | 53 | 326 | 2.0 | 11.0 | 0.00 | 0.00 | 0.00 | 63 | 1009.4 |
| 20260504003005 | 53 | 280 | 3.0 | 11.0 | 0.00 | 0.00 | 0.00 | 58 | 1009.3 |
| 20260504002005 | 53 | 277 | 3.0 | 19.0 | 0.00 | 0.00 | 0.00 | 58 | 1009.2 |
| 20260504001501 | 53 | 181 | 0.0 | 11.0 | 0.00 | 0.00 | 0.00 | 58 | 1009.1 |
| 20260504001001 | 53 | 112 | 0.0 | 2.0 | 0.00 | 0.00 | 0.00 | 58 | 1008.9 |
| 20260504000459 | 53 | 112 | 0.0 | 2.0 | 0.00 | 0.00 | 0.00 | 55 | 1008.7 |
| 20260504000000 | 53 | 132 | 0.0 | 0.0 | 0.00 | 0.00 | 0.00 | 53 | 1008.7 |
| 20260503234959 | 53 | 85 | 0.0 | 4.0 | 0.00 | 0.00 | 0.00 | 54 | 1008.5 |